Location: Petruro
(41.0333°N, 14.7833°E)
Time: 13:58:45
(UTC+00:00)

DELTA 2 R/B (1) - Pass Details

Date: 28 October 2021
Orbit: 791 x 802 km, 39.6° (Epoch: 04 December)

Event Time Altitude Azimuth Distance (km) Brightness Sun altitude
Rises 19:30:53 0° 256° (WSW) 3,296 7.4 -39.7°
Reaches altitude 10° 19:33:23 10° 254° (WSW) 2,366 6.5 -40.2°
Enters shadow 19:34:21 15° 253° (WSW) 2,013 6.1 -40.3°
